FW3284 Weather Reports


Display with metric or nautical units.
time (UTC)temp
F
wind
direction
speed
MPH
gust
MPH
rain 1hr
in
rain 24hr
in
rain mn
in
humidity
%
barometer
mb
20260905000033 94 304 0.0 2.0 0.00 0.00 0.00 44 1010.6
20260904234513 94 140 0.0 2.0 0.00 0.00 0.00 44 1010.7
20260904233106 95 134 0.0 2.0 0.00 0.00 0.00 43 1010.6
20260904233001 95 176 0.0 2.0 0.00 0.00 0.00 43 1010.6
20260904231542 95 260 1.0 4.0 0.00 0.00 0.00 42 1010.6
20260904230016 96 142 0.0 3.0 0.00 0.00 0.00 42 1010.7
20260904224549 96 233 0.0 5.0 0.00 0.00 0.00 41 1010.7
20260904223022 97 247 1.0 4.0 0.00 0.00 0.00 40 1010.7
20260904221508 99 110 2.0 5.0 0.00 0.00 0.00 38 1010.8
20260904220056 100 96 2.0 5.0 0.00 0.00 0.00 39 1010.9
20260904214533 99 172 0.0 4.0 0.00 0.00 0.00 38 1010.9
20260904213021 99 229 1.0 4.0 0.00 0.00 0.00 39 1011.1
20260904211555 100 189 2.0 7.0 0.00 0.00 0.00 38 1011.2
20260904210039 99 224 2.0 9.0 0.00 0.00 0.00 38 1011.3
20260904204519 98 57 2.0 5.0 0.00 0.00 0.00 38 1011.7
20260904203058 98 172 1.0 5.0 0.00 0.00 0.00 39 1011.7
20260904201533 96 117 4.0 8.0 0.00 0.00 0.00 41 1011.8
20260904200017 97 155 0.0 8.0 0.00 0.00 0.00 41 1012.1
20260904194556 98 188 4.0 8.0 0.00 0.00 0.00 41 1012.3
20260904194505 98 141 4.0 8.0 0.00 0.00 0.00 41 1012.3
20260904193038 98 226 2.0 6.0 0.00 0.00 0.00 40 1012.3
20260904191523 96 248 1.0 8.0 0.00 0.00 0.00 44 1012.6
20260904190004 97 79 1.0 6.0 0.00 0.00 0.00 42 1012.8
20260904184545 97 185 2.0 7.0 0.00 0.00 0.00 44 1012.9
20260904183023 97 15 1.0 5.0 0.00 0.00 0.00 43 1013.1
20260904181509 96 302 2.0 8.0 0.00 0.00 0.00 44 1013.4
20260904180048 95 113 1.0 7.0 0.00 0.00 0.00 45 1013.5
20260904174527 94 150 3.0 9.0 0.00 0.00 0.00 45 1013.7
20260904173105 95 181 2.0 6.0 0.00 0.00 0.00 46 1013.9
20260904171541 94 150 2.0 6.0 0.00 0.00 0.00 46 1014.1
20260904170019 93 213 3.0 7.0 0.00 0.00 0.00 46 1014.1
20260904164600 93 257 3.0 7.0 0.00 0.00 0.00 48 1014.2
20260904164500 93 252 3.0 7.0 0.00 0.00 0.00 48 1014.2
20260904163041 91 286 2.0 7.0 0.00 0.00 0.00 49 1014.2
20260904161518 91 258 3.0 8.0 0.00 0.00 0.00 51 1014.3
20260904160057 90 253 3.0 9.0 0.00 0.00 0.00 51 1014.3
20260904154539 90 135 1.0 5.0 0.00 0.00 0.00 52 1014.3
20260904153019 89 205 2.0 11.0 0.00 0.00 0.00 53 1014.4
20260904151557 88 230 2.0 10.0 0.00 0.00 0.00 55 1014.3
20260904150037 88 269 0.0 8.0 0.00 0.00 0.00 58 1014.3
20260904144519 86 267 3.0 8.0 0.00 0.00 0.00 60 1014.3
20260904143053 85 266 3.0 7.0 0.00 0.00 0.00 63 1014.1
20260904141525 85 233 3.0 7.0 0.00 0.00 0.00 64 1014.1
20260904140106 84 258 2.0 5.0 0.00 0.00 0.00 65 1014.3
20260904140001 84 241 2.0 5.0 0.00 0.00 0.00 65 1014.2
20260904134554 83 258 1.0 9.0 0.00 0.00 0.00 68 1014.3
20260904133019 83 247 1.0 3.0 0.00 0.00 0.00 68 1014.3
20260904131553 81 106 0.0 1.0 0.00 0.00 0.00 72 1014.2
20260904130040 80 207 0.0 2.0 0.00 0.00 0.00 73 1014.1
20260904124517 79 182 0.0 2.0 0.00 0.00 0.00 74 1013.9
20260904123058 77 182 0.0 2.0 0.00 0.00 0.00 77 1014.0
20260904121529 75 251 0.0 2.0 0.00 0.00 0.00 80 1013.9
20260904120010 74 215 0.0 0.0 0.00 0.00 0.00 81 1013.7
20260904114601 73 215 0.0 0.0 0.00 0.00 0.00 81 1013.6
20260904113031 73 212 0.0 2.0 0.00 0.00 0.00 81 1013.5
20260904111513 74 182 0.0 2.0 0.00 0.00 0.00 80 1013.4
20260904110047 75 195 0.0 2.0 0.00 0.00 0.00 78 1013.2
20260904104528 75 283 0.0 2.0 0.00 0.00 0.00 77 1013.2
20260904103058 75 285 0.0 2.0 0.00 0.00 0.00 77 1013.1
20260904101542 76 285 0.0 0.0 0.00 0.00 0.00 76 1013.0
20260904100023 76 285 0.0 2.0 0.00 0.00 0.00 75 1013.0
20260904094602 77 288 0.0 2.0 0.00 0.00 0.00 74 1012.9
20260904093039 77 288 0.0 2.0 0.00 0.00 0.00 72 1012.6
20260904091515 78 216 0.0 1.0 0.00 0.00 0.00 72 1012.5
20260904090105 78 342 0.0 2.0 0.00 0.00 0.00 71 1012.5
20260904084533 79 225 0.0 2.0 0.00 0.00 0.00 70 1012.3
20260904083013 79 217 0.0 2.0 0.00 0.00 0.00 70 1012.2
20260904081548 79 205 0.0 2.0 0.00 0.00 0.00 69 1012.1
20260904080031 79 183 1.0 4.0 0.00 0.00 0.00 69 1012.1
20260904074517 79 146 0.0 3.0 0.00 0.00 0.00 68 1012.0
20260904073058 79 273 0.0 4.0 0.00 0.00 0.00 68 1012.1
20260904071533 80 241 0.0 6.0 0.00 0.00 0.00 67 1012.0
20260904070011 80 248 0.0 4.0 0.00 0.00 0.00 67 1012.1
20260904064553 80 231 0.0 3.0 0.00 0.00 0.00 66 1012.1
20260904063033 80 148 0.0 2.0 0.00 0.00 0.00 66 1012.1
20260904061518 81 141 0.0 3.0 0.00 0.00 0.00 65 1012.2
20260904060049 81 184 0.0 6.0 0.00 0.00 0.00 64 1012.1
20260904054523 81 240 1.0 5.0 0.00 0.00 0.00 64 1012.1
20260904053105 81 224 0.0 3.0 0.00 0.00 0.00 64 1012.1
20260904053004 81 217 0.0 3.0 0.00 0.00 0.00 64 1012.1
20260904051543 81 166 0.0 5.0 0.00 0.00 0.00 63 1012.1
20260904050032 82 167 1.0 4.0 0.00 0.00 0.00 62 1012.0
20260904044600 82 181 1.0 4.0 0.00 0.00 0.00 62 1012.0
20260904044501 82 144 0.0 4.0 0.00 0.00 0.00 62 1012.0
20260904043055 82 167 0.0 4.0 0.00 0.00 0.00 61 1012.0
20260904041523 83 276 1.0 4.0 0.00 0.00 0.00 60 1012.1
20260904040009 83 200 0.0 5.0 0.00 0.00 0.00 59 1012.0
20260904034550 84 137 0.0 8.0 0.00 0.00 0.00 58 1012.0
20260904033028 84 202 1.0 2.0 0.00 0.00 0.00 57 1012.0
20260904031520 84 235 0.0 5.0 0.00 0.00 0.00 57 1012.0
20260904030055 85 151 1.0 5.0 0.00 0.00 0.00 56 1011.9
20260904024541 85 217 0.0 4.0 0.00 0.00 0.00 55 1011.8
20260904023025 86 202 1.0 8.0 0.00 0.00 0.00 54 1011.7
20260904021512 86 217 1.0 4.0 0.00 0.00 0.00 54 1011.5
20260904020055 86 159 1.0 3.0 0.00 0.00 0.00 54 1011.4
20260904014533 86 239 0.0 2.0 0.00 0.00 0.00 54 1011.2
20260904013022 87 169 0.0 4.0 0.00 0.00 0.00 53 1010.9
20260904011553 87 138 0.0 3.0 0.00 0.00 0.00 52 1010.7
20260904010037 88 150 0.0 4.0 0.00 0.00 0.00 50 1010.6
20260904004521 89 135 0.0 5.0 0.00 0.00 0.00 49 1010.6
20260904003005 90 132 1.0 3.0 0.00 0.00 0.00 48 1010.4
20260904001547 91 159 1.0 3.0 0.00 0.00 0.00 46 1010.4